Total_Precipitation_Accumulation
1.58 1.93 2.25 2.69 3.04 3.40 3.92 4.46 4.90 4.80 4.47 3.99 3.50 3.13 2.69 2.39 2.12 1.79 1.55 1.42 1.34 1.35 1.52 1.35 1.41 1.47 1.41 1.33 1.32 1.40 1.43 1.26 1.51 1.59 1.14 0.85 0.75 0.69 0.60 0.60 0.58 0.53 0.62
1.41 1.72 2.18 2.56 2.90 3.28 3.64 3.92 3.84 3.42 3.17 2.98 2.72 2.34 2.18 2.08 1.99 1.84 1.59 1.30 1.24 1.21 1.15 1.13 1.12 1.17 1.20 1.10 1.05 1.17 1.15 0.98 1.25 1.36 1.21 0.83 0.66 0.56 0.46 0.49 0.49 0.52 0.66
1.18 1.46 1.95 2.24 2.38 2.64 2.82 2.80 2.55 2.17 2.03 1.97 1.78 1.80 1.92 1.95 1.89 1.85 1.73 1.48 1.35 1.30 1.25 1.14 1.04 1.00 1.01 1.01 0.98 1.05 1.06 0.94 0.99 1.12 1.28 1.00 0.68 0.54 0.39 0.40 0.47 0.60 0.72
0.84 1.14 1.46 1.59 1.73 1.81 1.79 1.75 1.66 1.53 1.44 1.43 1.38 1.30 1.39 1.57 1.68 1.81 1.82 1.80 1.65 1.47 1.35 1.21 1.02 0.87 0.84 0.89 0.80 0.86 0.98 1.00 0.89 0.89 0.97 0.99 1.01 0.92 0.56 0.35 0.38 0.57 0.67
0.78 0.94 0.98 0.98 1.10 1.15 1.18 1.14 1.19 1.21 1.20 1.25 1.39 1.29 1.10 1.04 0.97 1.01 1.11 1.22 1.30 1.22 1.06 0.99 0.91 0.80 0.72 0.71 0.75 0.86 0.94 0.97 0.89 0.89 0.87 0.92 1.06 1.08 0.94 0.61 0.53 0.58 0.56
0.57 0.66 0.68 0.69 0.75 0.80 0.84 0.96 1.06 1.16 1.12 1.12 1.16 1.20 1.12 1.04 0.94 0.87 0.87 0.82 0.84 0.84 0.78 0.74 0.74 0.72 0.70 0.70 0.70 0.76 0.84 0.93 0.97 0.98 1.02 1.06 1.08 1.14 1.22 1.00 0.83 0.76 0.66
0.40 0.37 0.37 0.41 0.45 0.46 0.51 0.69 0.82 0.91 0.86 0.83 0.87 0.90 1.00 0.99 0.89 0.77 0.68 0.61 0.57 0.59 0.63 0.64 0.68 0.67 0.71 0.76 0.82 0.83 0.83 0.90 1.01 1.04 1.11 1.19 1.18 1.24 1.35 1.28 1.09 0.99 0.96
0.22 0.18 0.18 0.20 0.26 0.31 0.33 0.39 0.57 0.66 0.72 0.68 0.70 0.81 1.00 1.03 0.94 0.90 0.75 0.66 0.61 0.58 0.60 0.67 0.73 0.71 0.70 0.70 0.80 0.84 0.90 0.98 1.01 1.01 1.16 1.25 1.19 1.31 1.44 1.47 1.43 1.30 1.30
0.12 0.10 0.12 0.12 0.15 0.19 0.23 0.24 0.34 0.48 0.60 0.62 0.64 0.64 0.68 0.73 0.72 0.70 0.67 0.63 0.68 0.61 0.67 0.74 0.82 0.82 0.80 0.81 0.85 0.86 0.95 1.13 1.21 1.19 1.23 1.29 1.27 1.31 1.44 1.56 1.60 1.58 1.52
0.08 0.07 0.06 0.07 0.09 0.13 0.21 0.27 0.27 0.36 0.60 0.72 0.70 0.59 0.49 0.46 0.53 0.59 0.62 0.63 0.66 0.65 0.69 0.74 0.77 0.81 0.81 0.82 0.86 0.91 1.01 1.17 1.25 1.32 1.41 1.40 1.34 1.38 1.45 1.50 1.62 1.73 1.74
0.06 0.04 0.03 0.04 0.08 0.11 0.19 0.34 0.40 0.48 0.64 0.83 0.88 0.76 0.58 0.51 0.52 0.52 0.49 0.51 0.58 0.65 0.71 0.68 0.61 0.58 0.63 0.75 0.89 0.94 1.02 1.11 1.16 1.22 1.23 1.23 1.26 1.31 1.26 1.34 1.47 1.63 1.78
0.04 0.02 0.02 0.02 0.05 0.08 0.19 0.47 0.73 1.00 1.10 1.22 1.32 1.15 0.78 0.59 0.51 0.42 0.40 0.45 0.55 0.63 0.68 0.64 0.57 0.55 0.60 0.74 0.88 1.02 1.21 1.35 1.31 1.24 1.16 1.08 1.15 1.24 1.25 1.35 1.37 1.43 1.65
0.03 0.03 0.02 0.02 0.03 0.05 0.11 0.27 0.37 0.64 0.88 1.10 1.24 1.03 0.67 0.47 0.39 0.34 0.38 0.49 0.59 0.63 0.62 0.62 0.66 0.76 0.84 0.96 1.08 1.14 1.27 1.32 1.23 1.19 1.12 1.04 1.05 1.09 1.19 1.30 1.34 1.33 1.40
0.04 0.03 0.03 0.03 0.04 0.04 0.05 0.16 0.23 0.27 0.40 0.69 0.85 0.74 0.52 0.40 0.35 0.33 0.36 0.39 0.42 0.49 0.58 0.69 0.86 0.97 1.04 1.06 1.13 1.12 1.09 1.09 1.01 0.94 0.89 0.93 1.03 1.09 1.09 1.08 1.11 1.16 1.26
0.06 0.05 0.05 0.06 0.06 0.06 0.07 0.13 0.20 0.23 0.33 0.59 0.75 0.67 0.51 0.42 0.33 0.28 0.29 0.33 0.42 0.48 0.61 0.76 0.85 0.85 0.87 0.93 1.01 1.00 0.95 0.90 0.84 0.76 0.62 0.62 0.78 0.92 0.95 0.88 0.93 0.98 1.06
0.08 0.08 0.08 0.08 0.09 0.10 0.10 0.11 0.14 0.20 0.31 0.51 0.71 0.70 0.54 0.41 0.32 0.28 0.33 0.44 0.52 0.58 0.69 0.78 0.78 0.73 0.57 0.51 0.52 0.58 0.64 0.70 0.71 0.63 0.58 0.56 0.56 0.58 0.60 0.64 0.69 0.77 0.86
0.15 0.12 0.11 0.10 0.12 0.15 0.16 0.18 0.18 0.20 0.32 0.49 0.64 0.71 0.64 0.52 0.45 0.39 0.44 0.52 0.58 0.65 0.71 0.72 0.73 0.71 0.66 0.48 0.37 0.36 0.44 0.51 0.54 0.55 0.59 0.48 0.41 0.44 0.44 0.44 0.42 0.44 0.49
0.16 0.18 0.15 0.15 0.16 0.17 0.22 0.25 0.26 0.28 0.37 0.52 0.68 0.74 0.72 0.70 0.71 0.64 0.62 0.66 0.73 0.76 0.78 0.75 0.75 0.80 0.76 0.61 0.48 0.40 0.37 0.44 0.48 0.50 0.54 0.55 0.54 0.53 0.54 0.52 0.48 0.43 0.40
0.16 0.19 0.22 0.20 0.21 0.22 0.25 0.28 0.31 0.37 0.47 0.57 0.72 0.82 0.87 0.92 0.91 0.87 0.89 0.96 1.02 0.96 0.94 0.93 0.94 0.95 0.94 0.77 0.56 0.46 0.48 0.57 0.56 0.57 0.57 0.58 0.59 0.56 0.44 0.45 0.48 0.48 0.49
0.19 0.20 0.21 0.22 0.24 0.25 0.28 0.37 0.47 0.59 0.73 0.82 0.91 1.07 1.23 1.35 1.38 1.34 1.27 1.23 1.26 1.16 1.08 1.02 1.01 1.01 1.04 0.95 0.62 0.48 0.56 0.73 0.76 0.78 0.72 0.59 0.52 0.47 0.37 0.41 0.53 0.51 0.51
0.22 0.21 0.20 0.20 0.22 0.23 0.32 0.48 0.63 0.80 0.91 1.02 1.11 1.29 1.56 1.68 1.60 1.55 1.45 1.36 1.35 1.36 1.33 1.20 1.16 1.17 1.19 1.10 0.73 0.59 0.68 0.83 0.94 0.93 0.88 0.81 0.64 0.47 0.41 0.41 0.48 0.51 0.54
0.22 0.21 0.22 0.21 0.25 0.31 0.45 0.65 0.79 0.87 0.96 1.12 1.30 1.51 1.70 1.66 1.54 1.69 1.63 1.59 1.63 1.60 1.53 1.46 1.35 1.30 1.29 1.17 0.86 0.63 0.70 0.89 1.08 1.15 1.11 1.03 0.81 0.60 0.52 0.48 0.46 0.42 0.42
0.23 0.24 0.27 0.31 0.33 0.43 0.62 0.84 0.91 0.98 1.04 1.11 1.26 1.40 1.48 1.60 1.68 1.69 1.63 1.62 1.65 1.67 1.59 1.54 1.47 1.40 1.41 1.38 0.99 0.77 0.83 0.93 1.07 1.27 1.28 1.06 0.85 0.70 0.56 0.52 0.51 0.45 0.42
0.20 0.23 0.30 0.40 0.50 0.60 0.75 0.87 0.90 0.90 0.91 0.93 0.97 1.09 1.25 1.37 1.49 1.70 1.76 1.76 1.71 1.73 1.71 1.61 1.52 1.48 1.51 1.52 1.23 0.95 0.92 0.97 1.01 1.12 1.18 1.05 0.89 0.78 0.67 0.62 0.59 0.55 0.56
0.22 0.28 0.34 0.43 0.53 0.65 0.77 0.80 0.84 0.91 0.97 0.97 0.98 1.01 1.11 1.28 1.39 1.53 1.63 1.64 1.65 1.48 1.41 1.32 1.26 1.28 1.35 1.34 1.12 0.99 1.00 1.12 1.17 1.15 1.20 1.22 1.09 0.97 0.87 0.83 0.85 0.84 0.78
0.23 0.32 0.42 0.51 0.58 0.70 0.83 0.88 0.95 1.04 1.11 1.10 1.05 1.05 1.11 1.25 1.35 1.42 1.39 1.21 1.15 0.97 0.86 0.84 0.80 0.83 0.89 0.99 0.87 0.78 0.88 1.05 1.11 1.08 1.12 1.21 1.20 1.12 1.04 0.99 1.01 1.01 0.95